Flag for Canada Weather past 2 weeks in Whistler, British Columbia, Canada

Now
48 °F

Cool.


Feels Like: 48 °F
Forecast: 38 / 54 °F
Wind: 1 mph from Northeast

Location: Squamish Airport

Current Time: Apr 27, 2015 at 2:03:42 AM

Latest Report: Apr 27, 2015 at 1:00 AM


Visibility: N/A

Pressure: 30.24 "Hg

Humidity: 87%

Dew point: 44 °F

Location of WhistlerLocation

Historic Weather in Whistler — Graph

°F

Whistler temperature yesterday

Maximum temperature yesterday: 58 °F (at 4:00 PM)
Minimum temperature yesterday: 37 °F (at 3:00 AM)
Average temperature yesterday: 49 °F

Past Weeks' High & Low Weather Summary

 TemperatureHumidityPressure
High70 °F (Apr 20, 4:00 PM)100% (Apr 12, 5:00 AM)30.51 "Hg (Apr 12, 5:00 AM)
Low31 °F (Apr 12, 5:00 AM)31% (Apr 19, 5:00 PM)29.68 "Hg (Apr 23, 7:00 PM)
Average48 °F75%30.07 "Hg
* Reported Apr 12 1:00 AM — Apr 27 1:00 AM, Whistler, Weather by CustomWeather, © 2015

Note: Actual official high and low records may vary slightly from our data, if they occured in-between our weather recording intervals... More about our weather records

Advertising

Whistler weather history for previous 24 hours

 ConditionsComfort  
Time TempWeatherWind HumidityBarometerVisibility
1:00 AM
Mon, Apr 27
48 °FCool.1 mph87%30.24 "HgN/A
12:00 AM49 °FCool.2 mph80%30.24 "HgN/A
11:00 PM
Sun, Apr 26
50 °FCool.2 mph73%30.25 "HgN/A
10:00 PM51 °FCool.2 mph69%30.24 "HgN/A
9:00 PM52 °FCool.2 mph59%30.23 "HgN/A
8:00 PM54 °FCool.5 mph56%30.19 "HgN/A
7:00 PM55 °FCool.6 mph55%30.19 "HgN/A
6:00 PM56 °FRefreshingly cool.6 mph55%30.18 "HgN/A
5:00 PM57 °FRefreshingly cool.6 mph54%30.18 "HgN/A
4:00 PM58 °FRefreshingly cool.8 mph49%30.17 "HgN/A
3:00 PM56 °FRefreshingly cool.8 mph54%30.18 "HgN/A
2:00 PM56 °FRefreshingly cool.7 mph52%30.17 "HgN/A
1:00 PM57 °FRefreshingly cool.8 mph57%30.17 "HgN/A
12:00 PM55 °FRefreshingly cool.8 mph52%30.16 "HgN/A
11:00 AM55 °FCool.7 mph55%30.16 "HgN/A
10:00 AM53 °FCool.2 mph61%30.16 "HgN/A
9:00 AM48 °FCool.2 mph75%30.16 "HgN/A
8:00 AM43 °FQuite cool.2 mph91%30.15 "HgN/A
7:00 AM41 °FQuite cool.1 mph96%30.15 "HgN/A
6:00 AM40 °FQuite cool.1 mph95%30.14 "HgN/A
5:00 AM39 °FChilly.2 mph97%30.13 "HgN/A
4:00 AM39 °FChilly.No wind97%30.11 "HgN/A
3:00 AM37 °FChilly.1 mph90%30.10 "HgN/A
2:00 AM38 °FChilly.1 mph97%30.09 "HgN/A
Weather by CustomWeather, © 2015

See weather overviewHow to use our weather pages